Spokane Fairchild, WA
on Tuesday, January 22, 2013

Tuesday
Previous Day Next Day
Daily Summary
 ActualAverage (KGEG)Record (KGEG)
Temperature
Mean Temperature °F 30°F  
Max Temperature 22°F 35°F 56°F (1919)
Min Temperature 5°F 26°F -11°F (1969)
Degree Days
Heating Degree Days 52 34  
Month to date heating degree days 793  
Since 1 July heating degree days 3627  
Cooling Degree Days 0 0  
Month to date cooling degree days 0  
Year to date cooling degree days 0  
Moisture
Dew Point 17°F   
Average Humidity 100    
Maximum Humidity 100    
Minimum Humidity 100    
Precipitation
Precipitation 0.00 in 0.05 in 0.50 in (2003)
Month to date precipitation 1.34  
Year to date precipitation 1.34  
Snow
Snow 0.00 in 0.30 in 3.90 in (1982)
Month to date snowfall 8.9  
Since 1 July snowfall 31.0  
Snow Depth 3.00 in   
Wind
Wind Speed 2 mph   
Max Wind Speed 7 mph   
Max Gust Speed mph   
Visibility 2 miles   
Events Fog , Snow   

Key: T is trace of precipitation, MM is missing value
Source: NWS Daily Summary
Time(PST)TemperatureDew PointHumidity Pressure Visibility Wind DirectionWind SpeedGust SpeedPrecipitationEvents Conditions
12:55 AM 5.0°F 5.0°F 100% 30.40 in 0.5 miles Calm Calm - N/A Fog Light Freezing Fog
1:09 AM 5.0°F 5.0°F 100% 30.39 in 0.8 miles NW 2.3 mph - N/A   Mist
1:55 AM 6.1°F 6.1°F 100% 30.39 in 0.2 miles Calm Calm - N/A Fog Light Freezing Fog
2:55 AM 6.8°F 6.8°F 100% 30.37 in 0.2 miles NE 1.2 mph - N/A Fog Light Freezing Fog
3:39 AM 8.6°F 8.6°F 100% 30.22 in 0.2 miles ENE 2.3 mph - N/A Fog , Snow Light Freezing Fog
3:58 AM 10.0°F 10.0°F 100% 30.37 in 0.2 miles NE 3.5 mph - 0.00 in Fog , Snow Light Freezing Fog
4:06 AM 10.4°F 10.4°F 100% 30.23 in 0.2 miles NE 3.5 mph - N/A Fog Light Freezing Fog
4:07 AM 10.4°F 10.4°F 100% 30.23 in 0.2 miles NNE 3.5 mph - N/A Fog Light Freezing Fog
4:55 AM 11.3°F 11.3°F 100% 30.37 in 0.2 miles NNE 3.5 mph - N/A Fog Light Freezing Fog
5:55 AM 11.7°F 11.7°F 100% 30.36 in 0.2 miles NNE 2.3 mph - N/A Fog Light Freezing Fog
6:55 AM 11.3°F 11.3°F 100% 30.38 in 0.2 miles NNE 2.3 mph - N/A Fog Light Freezing Fog
7:13 AM 12.2°F 12.2°F 100% 30.23 in 0.2 miles NNE 3.5 mph - N/A Fog Light Freezing Fog
7:24 AM 12.2°F 12.2°F 100% 30.23 in 0.1 miles NNE 3.5 mph - N/A Fog Light Freezing Fog
7:51 AM 12.2°F 12.2°F 100% 30.22 in 0.1 miles ENE 3.5 mph - N/A Fog Light Freezing Fog
7:55 AM 12.9°F 12.9°F 100% 30.36 in 0.1 miles East 3.5 mph - N/A Fog Light Freezing Fog
8:14 AM 14.0°F 14.0°F 100% 30.21 in 0.1 miles ENE 3.5 mph - N/A Fog Light Freezing Fog
8:27 AM 14.0°F 14.0°F 100% 30.22 in 0.1 miles ENE 3.5 mph - N/A Fog Light Freezing Fog
8:55 AM 12.9°F 12.9°F 100% 30.37 in 0.1 miles Calm Calm - N/A Fog Light Freezing Fog
9:55 AM 14.4°F 14.4°F 100% 30.38 in 0.1 miles Calm Calm - N/A Fog Light Freezing Fog
10:14 AM 15.8°F 15.8°F 100% 30.23 in 0.5 miles Calm Calm - N/A Fog Light Freezing Fog
10:45 AM 15.8°F 15.8°F 100% 30.23 in 0.1 miles Calm Calm - N/A Fog Light Freezing Fog
10:58 AM 16.3°F 16.3°F 100% 30.38 in 0.2 miles NE 2.3 mph - N/A Fog Light Freezing Fog
11:01 AM 15.8°F 15.8°F 100% 30.22 in 0.2 miles NE 2.3 mph - N/A Fog Light Freezing Fog
11:24 AM 17.6°F 17.6°F 100% 30.22 in 0.2 miles ENE 3.5 mph - N/A Fog Light Freezing Fog
11:37 AM 17.6°F 17.6°F 100% 30.21 in 0.2 miles ENE 4.6 mph - N/A Fog , Snow Light Freezing Fog
11:41 AM 17.6°F 17.6°F 100% 30.21 in 0.2 miles ENE 4.6 mph - N/A Fog , Snow Light Freezing Fog
11:42 AM 17.6°F 17.6°F 100% 30.21 in 0.2 miles NE 4.6 mph - N/A Fog Light Freezing Fog
11:47 AM 17.6°F 17.6°F 100% 30.21 in 0.2 miles NE 3.5 mph - N/A Fog Light Freezing Fog
11:58 AM 18.1°F 18.1°F 100% 30.36 in 0.2 miles NNE 4.6 mph - 0.00 in Fog Light Freezing Fog
12:08 PM 17.6°F 17.6°F 100% 30.20 in 0.2 miles NE 4.6 mph - N/A Fog Light Freezing Fog
12:13 PM 19.4°F 19.4°F 100% 30.19 in 0.5 miles NNE 6.9 mph - N/A Fog , Snow Light Freezing Fog
12:18 PM 19.4°F 19.4°F 100% 30.19 in 0.5 miles NNE 5.8 mph - N/A Fog , Snow Light Freezing Fog
12:23 PM 19.4°F 19.4°F 100% 30.19 in 0.5 miles NNE 5.8 mph - N/A Fog , Snow Light Freezing Fog
12:28 PM 19.4°F 19.4°F 100% 30.19 in 0.5 miles NE 5.8 mph - N/A Fog , Snow Light Freezing Fog
12:30 PM 19.4°F 19.4°F 100% 30.19 in 0.5 miles NE 5.8 mph - N/A Fog Light Freezing Fog
12:35 PM 19.4°F 19.4°F 100% 30.18 in 0.2 miles NE 6.9 mph - N/A Fog Light Freezing Fog
12:40 PM 19.4°F 19.4°F 100% 30.18 in 0.2 miles ENE 5.8 mph - N/A Fog Light Freezing Fog
12:50 PM 19.4°F 19.4°F 100% 30.19 in 0.2 miles NE 3.5 mph - N/A Fog Light Freezing Fog
12:58 PM 19.9°F 19.9°F 100% 30.34 in 0.2 miles NE 2.3 mph - 0.00 in Fog Light Freezing Fog
1:08 PM 19.4°F 19.4°F 100% 30.19 in 0.2 miles North 4.6 mph - N/A Fog Light Freezing Fog
1:13 PM 19.4°F 19.4°F 100% 30.18 in 0.2 miles North 3.5 mph - N/A Fog Light Freezing Fog
1:23 PM 19.4°F 19.4°F 100% 30.17 in 10.0 miles NNE 4.6 mph - N/A   Overcast
1:58 PM 20.3°F 20.3°F 100% 30.31 in 10.0 miles NNE 3.5 mph - N/A   Scattered Clouds
2:13 PM 19.4°F 19.4°F 100% 30.16 in 6.0 miles NNE 2.3 mph - N/A   Overcast
2:28 PM 21.2°F 21.2°F 100% 30.16 in 10.0 miles Variable 1.2 mph - N/A   Scattered Clouds
2:58 PM 20.7°F 20.7°F 100% 30.29 in 10.0 miles NE 4.6 mph - N/A   Partly Cloudy
2:59 PM 21.2°F 21.2°F 100% 30.15 in 10.0 miles NE 4.6 mph - N/A   Partly Cloudy
3:08 PM 19.4°F 19.4°F 100% 30.15 in 10.0 miles NE 5.8 mph - N/A   Scattered Clouds
3:58 PM 20.3°F 20.3°F 100% 30.28 in 10.0 miles North 3.5 mph - 0.00 in   Mostly Cloudy
4:58 PM 19.8°F 19.8°F 100% 30.27 in 10.0 miles NNE 1.2 mph - N/A   Mostly Cloudy
5:26 PM 19.4°F 19.4°F 100% 30.14 in 9.0 miles Calm Calm - N/A   Mostly Cloudy
5:36 PM 19.4°F 19.4°F 100% 30.13 in 7.0 miles East 1.2 mph - N/A   Mostly Cloudy
5:46 PM 17.6°F 17.6°F 100% 30.13 in 7.0 miles ENE 1.2 mph - N/A   Mostly Cloudy
5:58 PM 18.0°F 18.0°F 100% 30.26 in 7.0 miles Calm Calm - N/A   Overcast
6:03 PM 17.6°F 17.6°F 100% 30.12 in 5.0 miles Calm Calm - N/A   Overcast
6:08 PM 17.6°F 17.6°F 100% 30.12 in 1.2 miles Calm Calm - N/A   Overcast
6:11 PM 17.6°F 17.6°F 100% 30.12 in 0.5 miles Calm Calm - N/A Fog , Snow Light Freezing Fog
6:16 PM 19.4°F 19.4°F 100% 30.11 in 0.5 miles NE 1.2 mph - N/A Fog , Snow Light Freezing Fog
6:21 PM 19.4°F 19.4°F 100% 30.11 in 0.2 miles ENE 3.5 mph - N/A Fog , Snow Light Freezing Fog
6:36 PM 19.4°F 19.4°F 100% 30.13 in 0.2 miles Calm Calm - N/A Fog Light Freezing Fog
6:37 PM 19.4°F 19.4°F 100% 30.12 in 0.2 miles Calm Calm - N/A Fog Light Freezing Fog
6:42 PM 19.4°F 19.4°F 100% 30.12 in 0.2 miles Calm Calm - N/A Fog Light Freezing Drizzle
6:47 PM 19.4°F 19.4°F 100% 30.13 in 0.2 miles Calm Calm - N/A Fog Light Freezing Drizzle
6:52 PM 19.4°F 19.4°F 100% 30.13 in 0.2 miles Calm Calm - N/A Fog Light Freezing Fog
6:58 PM 18.7°F 18.7°F 100% 30.26 in 0.2 miles East 1.2 mph - 0.00 in Fog , Snow Light Freezing Fog
7:55 PM 18.9°F 18.9°F 100% 30.24 in 0.5 miles North 2.3 mph - N/A Fog Light Freezing Fog
8:55 PM 19.0°F 19.0°F 100% 30.24 in 0.2 miles NE 2.3 mph - N/A Fog Light Freezing Fog
9:55 PM 19.9°F 19.9°F 100% 30.23 in 0.5 miles Calm Calm - N/A Fog Light Freezing Fog
10:21 PM 19.4°F 19.4°F 100% 30.24 in 1.2 miles NNE 2.3 mph - N/A   Overcast
10:39 PM 21.2°F 21.2°F 100% 30.24 in 0.8 miles NNE 3.5 mph - N/A   Mist
10:55 PM 20.8°F 20.8°F 100% 30.23 in 0.8 miles NNE 4.6 mph - N/A   Mist
11:04 PM 21.2°F 21.2°F 100% 30.22 in 1.2 miles NNE 4.6 mph - N/A   Overcast
11:55 PM 22.1°F 22.1°F 100% 30.21 in 1.5 miles ENE 3.5 mph - N/A Snow Light Snow
Moon Phase
Jan. 22 Jan. 26 Feb. 03 Feb. 10 Feb. 17
Sunrise:07:28 AM (PST) Moon Rise:01:00 PM (PST)
Sunset:04:37 PM (PST) Moon Set:03:56 AM (PST)

Copyright © 2014 The Weather Underground, Inc.